Location: Black Skies Observatory
(44.7549°N, 79.7179°W)
Time: 15:00:01
(UTC-05:00)

Envisat - Pass Details

Date: 02 November 2020
Orbit: 764 x 766 km, 98.1° (Epoch: 01 December)

Event Time Altitude Azimuth Distance (km) Brightness Sun altitude
Rises 04:57:50 0° 31° (NNE) 3,240 6.7 -21.9°
Reaches altitude 10° 05:01:13 10° 54° (NE) 2,308 6.2 -21.3°
Maximum altitude 05:04:04 15° 89° (E) 1,979 6.2 -20.8°
Drops below altitude 10° 05:06:53 10° 123° (ESE) 2,297 6.3 -20.3°
Sets 05:10:13 0° 147° (SSE) 3,217 6.7 -19.7°
